Weather History for EIDW - December, 2013

Change the Weather History Date:

Saturday, December 14, 2013

  Actual Average Record
Temperature  
Mean Temperature 46 °F -  
Max Temperature 54 °F 47 °F 59 °F (1998)
Min Temperature 38 °F 37 °F 28 °F (1996)
Degree Days  
Heating Degree Days 19    
Moisture  
Dew Point 43 °F    
Average Humidity 80    
Maximum Humidity 94    
Minimum Humidity 67    
Precipitation  
Precipitation 0.16 in 0.10 in - ()
Sea Level Pressure  
Sea Level Pressure 29.78 in    
Wind  
Wind Speed 18 mph ()    
Max Wind Speed 38 mph    
Max Gust Speed 56 mph    
Visibility 6.8 miles    
Events Rain    
Averages and records for this station are not official NWS values.
T = Trace of Precipitation, MM = Missing Value Source: Averaged Metar Reports

Daily Weather History Graph

Daily Weather History Graph

Search for Another Location

Airport or City:

Trip Planner

Search our weather history database for the weather conditions in past years. The results will help you decide how hot, cold, wet, or windy it might be!

Date:

Astronomy

Dec. 14, 2013 Rise Set
Actual Time 8:33 AM GMT 4:05 PM GMT
Civil Twilight 7:51 AM GMT 4:48 PM GMT
Nautical Twilight 7:05 AM GMT 5:34 PM GMT
Astronomical Twilight 6:23 AM GMT 6:16 PM GMT
Moon 2:34 PM GMT (12/14) 5:23 AM GMT (12/14)
Length of Visible Light 8h 57m
Length of Day
7h 32m
Waxing Gibbous, 92% of the Moon is Illuminated
Dec 14
Waxing Gibbous
Dec 17
Full
Dec 25
Last Quarter
Jan 1
New
Jan 8
First Quarter

Hourly Weather History & Observations

Time (GMT) Temp. Windchill Dew Point Humidity Pressure Visibility Wind Dir Wind Speed Gust Speed Precip Events Conditions
12:00 AM 39 °F - 34 °F 76% 30.05 in 19 mi SW 15.7 mph - -   Scattered Clouds
12:00 AM 39.2 °F 31.2 °F 33.8 °F 81% 30.04 in 6.2 mi SW 13.8 mph - N/A   Partly Cloudy
12:30 AM 39.2 °F 31.2 °F 33.8 °F 81% 30.04 in 6.2 mi SW 13.8 mph - N/A   Partly Cloudy
1:00 AM 39.2 °F 31.2 °F 33.8 °F 81% 30.04 in 6.2 mi SW 13.8 mph - N/A   Partly Cloudy
1:30 AM 39.2 °F 31.6 °F 33.8 °F 81% 30.01 in 6.2 mi SW 12.7 mph - N/A   Scattered Clouds
2:00 AM 41.0 °F 34.7 °F 33.8 °F 76% 30.01 in 6.2 mi SSW 10.4 mph - N/A   Scattered Clouds
2:30 AM 42.8 °F 36.6 °F 33.8 °F 70% 30.01 in 6.2 mi South 11.5 mph - N/A   Scattered Clouds
3:00 AM 42.8 °F 37.0 °F 33.8 °F 70% 30.01 in 6.2 mi South 10.4 mph - N/A   Mostly Cloudy
3:30 AM 42.8 °F 36.6 °F 33.8 °F 70% 30.01 in 6.2 mi South 11.5 mph - N/A   Mostly Cloudy
4:00 AM 44.6 °F 39.2 °F 35.6 °F 71% 29.98 in 6.2 mi SSE 10.4 mph - N/A   Mostly Cloudy
4:30 AM 44.6 °F 39.7 °F 37.4 °F 76% 29.95 in 6.2 mi SSE 9.2 mph - N/A   Mostly Cloudy
5:00 AM 48.2 °F - 41.0 °F 76% 29.95 in 6.2 mi SSE 9.2 mph - N/A   Mostly Cloudy
5:30 AM 48.2 °F - 42.8 °F 82% 29.95 in 6.2 mi South 17.3 mph - N/A   Mostly Cloudy
6:00 AM 50 °F - 43 °F 69% 29.92 in 16 mi South 22.4 mph - -   Overcast
6:00 AM 50.0 °F - 42.8 °F 76% 29.92 in 6.2 mi South 21.9 mph 34.5 mph N/A   Mostly Cloudy
6:30 AM 50.0 °F - 42.8 °F 76% 29.92 in 6.2 mi South 24.2 mph 41.4 mph N/A   Mostly Cloudy
7:00 AM 51.8 °F - 41.0 °F 67% 29.86 in 6.2 mi South 18.4 mph - N/A   Mostly Cloudy
7:30 AM 51.8 °F - 42.8 °F 71% 29.83 in 6.2 mi South 24.2 mph 35.7 mph N/A   Mostly Cloudy
8:00 AM 51.8 °F - 42.8 °F 71% 29.83 in 6.2 mi South 23.0 mph - N/A   Mostly Cloudy
8:30 AM 51.8 °F - 42.8 °F 71% 29.80 in 6.2 mi South 26.5 mph 38.0 mph N/A   Mostly Cloudy
9:00 AM 53.6 °F - 42.8 °F 67% 29.80 in 6.2 mi South 28.8 mph 43.7 mph N/A   Mostly Cloudy
9:30 AM 51.8 °F - 42.8 °F 71% 29.77 in 6.2 mi SSW 32.2 mph 47.2 mph N/A Rain Light Rain
10:00 AM 50.0 °F - 42.8 °F 76% 29.74 in 6.2 mi SSW 27.6 mph 42.6 mph N/A Rain Light Rain
10:30 AM 51.8 °F - 44.6 °F 76% 29.74 in 6.2 mi South 28.8 mph 47.2 mph N/A Rain Light Rain
11:00 AM 51.8 °F - 46.4 °F 82% 29.71 in 5.6 mi South 31.1 mph 51.8 mph N/A Rain Light Rain
11:30 AM 51.8 °F - 46.4 °F 82% 29.68 in 5.6 mi South 33.4 mph 52.9 mph N/A Rain Light Rain
12:00 PM 52 °F - 46 °F 74% 29.68 in 6 mi SSW 33.6 mph - - Rain Light Rain
12:00 PM 51.8 °F - 46.4 °F 82% 29.65 in 5.6 mi SSW 35.7 mph 56.4 mph N/A Rain Light Rain
12:30 PM 51.8 °F - 46.4 °F 82% 29.65 in 5.6 mi South 34.5 mph 54.1 mph N/A Rain Light Rain
1:00 PM 51.8 °F - 46.4 °F 82% 29.62 in 5.6 mi South 31.1 mph 43.7 mph N/A Rain Light Rain
1:30 PM 51.8 °F - 46.4 °F 82% 29.59 in 5.6 mi South 32.2 mph 51.8 mph N/A Rain Light Rain
2:00 PM 51.8 °F - 48.2 °F 88% 29.56 in 6.2 mi SSW 31.1 mph 46.0 mph N/A Rain Light Rain
2:30 PM 51.8 °F - 48.2 °F 88% 29.53 in 6.2 mi SSW 34.5 mph 52.9 mph N/A Rain Light Rain
3:00 PM 53.6 °F - 48.2 °F 82% 29.53 in 6.2 mi SSW 31.1 mph 50.6 mph N/A   Mostly Cloudy
3:30 PM 53.6 °F - 48.2 °F 82% 29.50 in 6.2 mi SSW 34.5 mph 51.8 mph N/A   Mostly Cloudy
4:00 PM 53.6 °F - 50.0 °F 88% 29.53 in 6.2 mi SW 38.0 mph 51.8 mph N/A   Mostly Cloudy
4:30 PM 53.6 °F - 50.0 °F 88% 29.56 in 6.2 mi SW 32.2 mph - N/A Rain Light Rain Showers
5:00 PM 51.8 °F - 50.0 °F 94% 29.59 in 6.2 mi WSW 25.3 mph - N/A   Scattered Clouds
5:30 PM 51.8 °F - 48.2 °F 88% 29.62 in 6.2 mi WSW 23.0 mph - N/A   Partly Cloudy
6:00 PM 50 °F - 47 °F 87% 29.66 in 19 mi WSW 15.7 mph - - Rain Light Rain Showers
6:00 PM 50.0 °F - 48.2 °F 94% 29.65 in 6.2 mi WSW 18.4 mph - N/A   Scattered Clouds
6:30 PM 50.0 °F - 46.4 °F 87% 29.65 in 6.2 mi SW 10.4 mph - N/A   Mostly Cloudy
7:00 PM 48.2 °F - 44.6 °F 87% 29.68 in 6.2 mi SW 10.4 mph - N/A   Scattered Clouds
7:30 PM 48.2 °F - 44.6 °F 87% 29.68 in 6.2 mi SSW 10.4 mph - N/A   Scattered Clouds
8:00 PM 48.2 °F - 44.6 °F 87% 29.68 in 6.2 mi SW 15.0 mph - N/A   Mostly Cloudy
8:30 PM 48.2 °F - 44.6 °F 87% 29.68 in 6.2 mi SW 17.3 mph - N/A   Mostly Cloudy
9:00 PM 48.2 °F - 44.6 °F 87% 29.71 in 6.2 mi SW 20.7 mph - N/A   Mostly Cloudy
9:30 PM 48.2 °F - 42.8 °F 82% 29.71 in 6.2 mi SW 21.9 mph - N/A   Mostly Cloudy
10:00 PM 48.2 °F - 42.8 °F 82% 29.74 in 6.2 mi SW 23.0 mph - N/A   Mostly Cloudy
10:30 PM 48.2 °F - 42.8 °F 82% 29.74 in 6.2 mi SW 24.2 mph - N/A   Mostly Cloudy
11:00 PM 48.2 °F - 41.0 °F 76% 29.77 in 6.2 mi SW 26.5 mph 40.3 mph N/A   Mostly Cloudy
11:30 PM 46.4 °F 37.7 °F 39.2 °F 76% 29.80 in 6.2 mi WSW 26.5 mph 39.1 mph N/A   Mostly Cloudy